Radiation Dose at Monitoring Post of Fukushima Daini Nuclear Power Station
Date,Time,MP-1(microSv/h),MP-2(microSv/h),MP-3(microSv/h),MP-4(microSv/h),MP-5(microSv/h),MP-6(microSv/h),MP-7(microSv/h),Wind Direction,Wind Velocity(m/s),Rain
2016/08/17,00:00,0.413,0.245,0.424,0.391,0.367,0.200,0.170,northeast,6.6,Yes
2016/08/17,00:10,0.409,0.243,0.427,0.387,0.362,0.200,0.171,northeast,6.0,Yes
2016/08/17,00:20,0.417,0.244,0.426,0.385,0.361,0.201,0.170,northeast,10.8,Yes
2016/08/17,00:30,0.414,0.246,0.425,0.388,0.365,0.200,0.169,northeast,12.7,Yes
2016/08/17,00:40,0.408,0.243,0.423,0.389,0.364,0.199,0.169,northeast,12.7,Yes
2016/08/17,00:50,0.410,0.241,0.423,0.383,0.359,0.199,0.171,northeast,12.6,Yes
2016/08/17,01:00,0.413,0.244,0.423,0.383,0.362,0.199,0.168,east-northeast,13.3,Yes
2016/08/17,01:10,0.409,0.243,0.420,0.387,0.366,0.198,0.168,east-northeast,14.3,Yes
2016/08/17,01:20,0.411,0.243,0.427,0.386,0.363,0.198,0.170,east-northeast,13.3,Yes
2016/08/17,01:30,0.412,0.244,0.424,0.382,0.359,0.199,0.167,east-northeast,12.7,Yes
2016/08/17,01:40,0.406,0.242,0.417,0.383,0.362,0.197,0.167,east-northeast,15.1,Yes
2016/08/17,01:50,0.401,0.238,0.416,0.378,0.359,0.195,0.166,east,9.4,Yes
2016/08/17,02:00,0.403,0.238,0.415,0.371,0.355,0.194,0.166,east,14.3,Yes
2016/08/17,02:10,0.402,0.239,0.416,0.372,0.358,0.193,0.165,east,13.2,Yes
2016/08/17,02:20,0.399,0.239,0.412,0.377,0.362,0.193,0.166,east,13.7,Yes
2016/08/17,02:30,0.403,0.239,0.419,0.375,0.360,0.193,0.168,east,12.9,Yes
2016/08/17,02:40,0.404,0.240,0.418,0.373,0.357,0.194,0.164,east-northeast,13.3,Yes
2016/08/17,02:50,0.398,0.239,0.413,0.378,0.360,0.194,0.165,east-northeast,13.9,Yes
2016/08/17,03:00,0.394,0.236,0.411,0.371,0.360,0.190,0.166,east-northeast,16.7,Yes
2016/08/17,03:10,0.402,0.239,0.416,0.371,0.357,0.191,0.165,east-northeast,14.0,Yes
2016/08/17,03:20,0.390,0.234,0.403,0.360,0.351,0.187,0.161,east-northeast,13.5,Yes
2016/08/17,03:30,0.388,0.235,0.408,0.366,0.359,0.188,0.164,east-northeast,14.9,Yes
2016/08/17,03:40,0.393,0.237,0.412,0.366,0.356,0.189,0.164,east-northeast,18.4,Yes
2016/08/17,03:50,0.392,0.237,0.412,0.368,0.355,0.192,0.165,east-northeast,17.0,Yes
2016/08/17,04:00,0.391,0.237,0.413,0.376,0.362,0.192,0.167,east-northeast,18.9,Yes
2016/08/17,04:10,0.396,0.237,0.418,0.377,0.361,0.191,0.166,east-northeast,17.2,Yes
2016/08/17,04:20,0.394,0.236,0.413,0.370,0.356,0.191,0.163,east-northeast,16.6,Yes
2016/08/17,04:30,0.387,0.234,0.409,0.372,0.357,0.190,0.165,east-northeast,14.7,Yes
2016/08/17,04:40,0.389,0.235,0.409,0.370,0.359,0.189,0.164,east-northeast,14.6,Yes
2016/08/17,04:50,0.388,0.233,0.408,0.361,0.352,0.187,0.160,east-northeast,13.2,Yes
2016/08/17,05:00,0.379,0.229,0.397,0.355,0.347,0.185,0.161,east-northeast,11.4,Yes
2016/08/17,05:10,0.381,0.234,0.399,0.359,0.355,0.185,0.162,east-northeast,15.2,Yes
2016/08/17,05:20,0.388,0.235,0.407,0.365,0.356,0.187,0.162,east-northeast,16.1,Yes
2016/08/17,05:30,0.385,0.233,0.408,0.366,0.355,0.190,0.163,east-northeast,21.4,Yes
2016/08/17,05:40,0.388,0.234,0.407,0.371,0.360,0.189,0.164,east,20.2,Yes
2016/08/17,05:50,0.390,0.236,0.411,0.371,0.358,0.188,0.162,east,18.0,Yes
2016/08/17,06:00,0.388,0.235,0.409,0.364,0.355,0.188,0.164,east,14.8,Yes
2016/08/17,06:10,0.385,0.236,0.406,0.368,0.356,0.189,0.164,east-northeast,16.6,Yes
2016/08/17,06:20,0.389,0.236,0.405,0.369,0.358,0.189,0.163,east-northeast,13.2,Yes
2016/08/17,06:30,0.390,0.235,0.410,0.368,0.360,0.189,0.164,northeast,12.1,Yes
2016/08/17,06:40,0.388,0.237,0.409,0.367,0.356,0.192,0.165,northeast,14.4,Yes
2016/08/17,06:50,0.392,0.238,0.409,0.374,0.359,0.192,0.166,north-northeast,14.1,Yes
2016/08/17,07:00,0.396,0.236,0.414,0.375,0.364,0.191,0.166,north-northeast,15.4,Yes
2016/08/17,07:10,0.391,0.236,0.415,0.372,0.360,0.191,0.165,north,14.1,Yes
2016/08/17,07:20,0.389,0.237,0.411,0.373,0.357,0.192,0.166,north,15.1,Yes
2016/08/17,07:30,0.392,0.235,0.409,0.374,0.361,0.191,0.165,north-northwest,15.0,Yes
2016/08/17,07:40,0.390,0.236,0.414,0.373,0.362,0.191,0.164,north-northwest,16.6,Yes
2016/08/17,07:50,0.388,0.237,0.414,0.370,0.358,0.191,0.166,north-northwest,12.1,Yes
2016/08/17,08:00,0.391,0.237,0.411,0.374,0.359,0.192,0.167,north-northwest,13.7,Yes
2016/08/17,08:10,0.396,0.236,0.414,0.378,0.363,0.192,0.165,northwest,11.9,Yes
2016/08/17,08:20,0.393,0.238,0.418,0.376,0.364,0.192,0.164,northwest,9.6,Yes
2016/08/17,08:30,0.392,0.238,0.417,0.374,0.360,0.192,0.167,northwest,8.4,Yes
2016/08/17,08:40,0.395,0.238,0.412,0.377,0.358,0.193,0.166,west-northwest,9.8,No
2016/08/17,08:50,0.398,0.237,0.413,0.380,0.360,0.193,0.166,west-northwest,7.2,No
2016/08/17,09:00,0.397,0.236,0.415,0.381,0.363,0.192,0.164,west,7.2,No
2016/08/17,09:10,0.396,0.234,0.420,0.378,0.363,0.192,0.164,west,10.2,No
2016/08/17,09:20,0.394,0.237,0.418,0.377,0.363,0.192,0.165,west-southwest,9.5,Yes
2016/08/17,09:30,0.394,0.237,0.416,0.376,0.362,0.192,0.163,west-southwest,9.1,Yes
2016/08/17,09:40,0.394,0.235,0.415,0.380,0.359,0.193,0.164,west-southwest,8.9,Yes
2016/08/17,09:50,0.397,0.237,0.414,0.382,0.358,0.192,0.164,west-southwest,9.0,Yes
2016/08/17,10:00,0.402,0.239,0.421,0.381,0.364,0.194,0.166,west-southwest,8.2,Yes
2016/08/17,10:10,0.399,0.239,0.420,0.378,0.364,0.193,0.165,southwest,7.5,No
2016/08/17,10:20,0.397,0.236,0.417,0.383,0.363,0.193,0.164,southwest,7.7,No
2016/08/17,10:30,0.398,0.234,0.414,0.382,0.359,0.193,0.165,south-southwest,9.1,No
2016/08/17,10:40,0.403,0.237,0.422,0.380,0.363,0.194,0.166,south-southwest,7.2,No
2016/08/17,10:50,0.402,0.238,0.422,0.378,0.365,0.195,0.165,south-southwest,8.1,No
2016/08/17,11:00,0.400,0.237,0.418,0.379,0.363,0.193,0.165,southwest,6.8,No
2016/08/17,11:10,0.399,0.238,0.418,0.381,0.363,0.194,0.164,southwest,8.0,No
2016/08/17,11:20,0.396,0.237,0.418,0.385,0.361,0.194,0.165,south-southwest,7.3,No
2016/08/17,11:30,0.400,0.237,0.417,0.384,0.363,0.193,0.164,south-southwest,9.8,No
2016/08/17,11:40,0.399,0.238,0.417,0.383,0.363,0.194,0.166,south-southwest,9.8,No
2016/08/17,11:50,0.399,0.238,0.419,0.381,0.363,0.195,0.166,south,8.0,No
2016/08/17,12:00,0.400,0.239,0.421,0.384,0.364,0.197,0.166,south-southwest,9.2,No
2016/08/17,12:10,0.403,0.241,0.423,0.384,0.363,0.195,0.167,south-southwest,8.7,No
2016/08/17,12:20,0.403,0.241,0.422,0.385,0.365,0.196,0.166,south,11.6,No
2016/08/17,12:30,0.403,0.241,0.423,0.386,0.364,0.195,0.167,south,12.6,No
2016/08/17,12:40,0.405,0.241,0.423,0.387,0.366,0.196,0.168,south,12.3,No
2016/08/17,12:50,0.405,0.239,0.424,0.386,0.364,0.196,0.168,south,12.4,No
2016/08/17,13:00,0.406,0.241,0.426,0.386,0.365,0.197,0.167,south,12.8,No
2016/08/17,13:10,0.406,0.240,0.426,0.389,0.368,0.197,0.169,south-southwest,10.9,No
2016/08/17,13:20,0.405,0.241,0.426,0.388,0.367,0.198,0.168,south-southwest,9.2,No
2016/08/17,13:30,0.405,0.241,0.428,0.390,0.362,0.197,0.167,south,11.0,No
2016/08/17,13:40,0.406,0.240,0.426,0.389,0.360,0.197,0.167,south,10.6,No
2016/08/17,13:50,0.405,0.240,0.425,0.389,0.364,0.195,0.168,south,11.8,No
2016/08/17,14:00,0.405,0.240,0.426,0.390,0.364,0.197,0.169,south,12.1,No
2016/08/17,14:10,0.406,0.241,0.425,0.389,0.364,0.196,0.169,south,11.6,No
2016/08/17,14:20,0.407,0.242,0.424,0.389,0.363,0.196,0.168,south-southwest,10.7,No
2016/08/17,14:30,0.406,0.242,0.424,0.388,0.364,0.197,0.169,south-southwest,10.7,No
2016/08/17,14:40,0.408,0.241,0.426,0.389,0.365,0.197,0.168,south-southwest,9.5,No
2016/08/17,14:50,0.406,0.242,0.426,0.388,0.364,0.197,0.169,south,11.5,No
2016/08/17,15:00,0.405,0.241,0.425,0.387,0.364,0.196,0.168,south,12.6,-
2016/08/17,15:10,0.404,0.240,0.424,0.385,0.364,0.195,0.167,south,13.5,-
2016/08/17,15:20,0.403,0.239,0.421,0.384,0.361,0.196,0.167,south,11.2,No
2016/08/17,15:30,0.403,0.238,0.421,0.384,0.361,0.195,0.166,south,12.1,No
2016/08/17,15:40,0.402,0.237,0.420,0.382,0.363,0.195,0.167,south,11.9,No
2016/08/17,15:50,0.402,0.238,0.420,0.382,0.362,0.195,0.166,south-southwest,10.5,No
2016/08/17,16:00,0.404,0.237,0.420,0.382,0.361,0.194,0.168,south-southwest,10.6,No
2016/08/17,16:10,0.402,0.237,0.420,0.383,0.359,0.195,0.166,south-southwest,10.1,No
2016/08/17,16:20,0.404,0.237,0.420,0.384,0.363,0.196,0.167,south-southwest,9.3,Yes
2016/08/17,16:30,0.402,0.238,0.424,0.386,0.364,0.196,0.167,south-southwest,10.2,No
2016/08/17,16:40,0.404,0.239,0.423,0.383,0.363,0.197,0.166,south-southwest,8.2,No
2016/08/17,16:50,0.403,0.239,0.421,0.384,0.363,0.196,0.167,south-southwest,8.8,No
2016/08/17,17:00,0.403,0.238,0.423,0.384,0.364,0.197,0.165,south,10.8,No
2016/08/17,17:10,0.404,0.239,0.423,0.385,0.364,0.196,0.168,south,10.0,No
2016/08/17,17:20,0.403,0.238,0.422,0.383,0.364,0.196,0.169,south-southwest,9.5,No
2016/08/17,17:30,0.404,0.238,0.423,0.384,0.363,0.197,0.168,south-southwest,8.4,No
2016/08/17,17:40,0.407,0.237,0.423,0.384,0.363,0.197,0.169,south-southwest,8.1,No
2016/08/17,17:50,0.411,0.239,0.420,0.384,0.362,0.197,0.167,south-southwest,8.3,No
2016/08/17,18:00,0.409,0.238,0.423,0.386,0.363,0.197,0.167,south-southwest,9.5,No
2016/08/17,18:10,0.407,0.238,0.420,0.390,0.363,0.196,0.167,south-southwest,5.6,Yes
2016/08/17,18:20,0.404,0.238,0.421,0.390,0.364,0.198,0.167,south-southwest,8.0,Yes
2016/08/17,18:30,0.404,0.239,0.430,0.389,0.366,0.200,0.169,south-southwest,6.9,Yes
2016/08/17,18:40,0.404,0.244,0.427,0.387,0.372,0.202,0.172,south-southwest,5.0,Yes
2016/08/17,18:50,0.409,0.245,0.426,0.386,0.371,0.202,0.172,south-southwest,6.1,Yes
2016/08/17,19:00,0.412,0.243,0.425,0.389,0.367,0.202,0.171,south-southwest,6.1,Yes
2016/08/17,19:10,0.410,0.243,0.422,0.392,0.365,0.202,0.170,south-southwest,6.1,No
2016/08/17,19:20,0.406,0.240,0.427,0.389,0.364,0.200,0.172,south-southwest,5.8,Yes
2016/08/17,19:30,0.403,0.242,0.426,0.386,0.371,0.201,0.171,south-southwest,6.0,Yes
2016/08/17,19:40,0.406,0.243,0.425,0.384,0.369,0.202,0.171,south-southwest,7.2,Yes
2016/08/17,19:50,0.409,0.241,0.422,0.389,0.367,0.201,0.169,southwest,7.3,Yes
2016/08/17,20:00,0.408,0.240,0.420,0.389,0.363,0.200,0.170,southwest,6.4,Yes
2016/08/17,20:10,0.404,0.242,0.424,0.385,0.368,0.201,0.172,west-southwest,4.8,Yes
2016/08/17,20:20,0.404,0.244,0.423,0.382,0.369,0.201,0.173,west-southwest,3.7,Yes
2016/08/17,20:30,0.410,0.246,0.421,0.388,0.369,0.205,0.172,west,4.0,Yes
2016/08/17,20:40,0.411,0.246,0.426,0.389,0.367,0.205,0.176,west-northwest,1.7,Yes
2016/08/17,20:50,0.409,0.248,0.432,0.390,0.375,0.209,0.178,south,1.9,Yes
2016/08/17,21:00,0.412,0.252,0.432,0.390,0.377,0.210,0.180,-,CALM,Yes
2016/08/17,21:10,0.418,0.252,0.427,0.397,0.375,0.213,0.182,west-southwest,1.3,Yes
2016/08/17,21:20,0.418,0.255,0.432,0.396,0.376,0.213,0.184,west,2.6,Yes
2016/08/17,21:30,0.414,0.259,0.437,0.395,0.382,0.217,0.187,west-northwest,1.7,Yes
2016/08/17,21:40,0.419,0.260,0.438,0.396,0.383,0.218,0.188,west-northwest,1.8,Yes
2016/08/17,21:50,0.423,0.260,0.434,0.402,0.382,0.220,0.187,west,3.1,Yes
2016/08/17,22:00,0.421,0.261,0.438,0.400,0.382,0.220,0.191,east-northeast,0.9,Yes
2016/08/17,22:10,0.419,0.263,0.440,0.398,0.388,0.222,0.193,north,0.7,Yes
2016/08/17,22:20,0.424,0.262,0.438,0.398,0.384,0.222,0.191,north-northeast,1.8,Yes
2016/08/17,22:30,0.424,0.261,0.433,0.402,0.381,0.221,0.191,north-northwest,2.5,Yes
2016/08/17,22:40,0.419,0.261,0.439,0.399,0.384,0.222,0.193,northwest,1.2,Yes
2016/08/17,22:50,0.420,0.264,0.439,0.398,0.387,0.224,0.193,west,1.4,Yes
2016/08/17,23:00,0.425,0.260,0.435,0.401,0.382,0.221,0.189,south,0.8,Yes
2016/08/17,23:10,0.421,0.257,0.431,0.401,0.380,0.218,0.189,-,CALM,Yes
2016/08/17,23:20,0.416,0.260,0.437,0.395,0.382,0.215,0.187,southwest,1.7,Yes
2016/08/17,23:30,0.416,0.255,0.433,0.392,0.380,0.214,0.184,west,1.9,Yes
2016/08/17,23:40,0.416,0.251,0.427,0.395,0.375,0.211,0.181,west-southwest,1.5,Yes
2016/08/17,23:50,0.411,0.250,0.427,0.390,0.372,0.208,0.180,south-southwest,1.0,Yes
